| time (UTC) | temp C | wind direction | speed KPH | gust KPH | rain 1hr cm | rain 24hr cm | rain mn cm | humidity % | barometer mb |
| 20260508105643 | 7 | 271 | 0.0 | 0.0 | 0.00 | 0.00 | 0.00 | 94 | 1009.3 |
| 20260508105140 | 7 | 273 | 0.0 | 0.0 | 0.00 | 0.00 | 0.00 | 94 | 1009.0 |
| 20260508104638 | 6 | 276 | 0.0 | 0.0 | 0.00 | 0.00 | 0.00 | 94 | 1009.3 |
| 20260508104135 | 6 | 276 | 0.0 | 0.0 | 0.00 | 0.00 | 0.00 | 94 | 1009.3 |
| 20260508103632 | 6 | 224 | 0.0 | 1.6 | 0.00 | 0.00 | 0.00 | 94 | 1009.4 |
| 20260508103129 | 6 | 283 | 0.0 | 0.0 | 0.00 | 0.00 | 0.00 | 93 | 1008.9 |
| 20260508102626 | 6 | 257 | 0.0 | 1.6 | 0.00 | 0.00 | 0.00 | 93 | 1009.2 |
| 20260508102124 | 6 | 271 | 0.0 | 1.6 | 0.00 | 0.00 | 0.00 | 92 | 1009.1 |
| 20260508101621 | 6 | 291 | 0.0 | 0.0 | 0.00 | 0.00 | 0.00 | 92 | 1009.1 |
| 20260508101119 | 6 | 288 | 0.0 | 0.0 | 0.00 | 0.00 | 0.00 | 91 | 1009.5 |
| 20260508100616 | 6 | 255 | 0.0 | 0.0 | 0.00 | 0.00 | 0.00 | 91 | 1009.1 |
| 20260508100114 | 6 | 255 | 0.0 | 0.0 | 0.00 | 0.00 | 0.00 | 90 | 1008.8 |
| 20260508095610 | 6 | 255 | 0.0 | 0.0 | 0.00 | 0.00 | 0.00 | 89 | 1008.8 |
| 20260508095107 | 6 | 255 | 0.0 | 0.0 | 0.00 | 0.00 | 0.00 | 89 | 1008.9 |
| 20260508094604 | 6 | 255 | 0.0 | 0.0 | 0.00 | 0.00 | 0.00 | 88 | 1009.1 |
| 20260508094101 | 6 | 255 | 0.0 | 0.0 | 0.00 | 0.00 | 0.00 | 88 | 1008.9 |
| 20260508093558 | 6 | 255 | 0.0 | 1.6 | 0.00 | 0.00 | 0.00 | 87 | 1009.0 |
| 20260508093056 | 7 | 262 | 0.0 | 0.0 | 0.00 | 0.00 | 0.00 | 85 | 1008.9 |
| 20260508092553 | 7 | 261 | 0.0 | 0.0 | 0.00 | 0.00 | 0.00 | 84 | 1009.1 |
| 20260508092052 | 7 | 265 | 0.0 | 0.0 | 0.00 | 0.00 | 0.00 | 82 | 1009.3 |
| 20260508091549 | 7 | 265 | 0.0 | 0.0 | 0.00 | 0.00 | 0.00 | 81 | 1009.3 |
| 20260508091045 | 8 | 274 | 0.0 | 0.0 | 0.00 | 0.00 | 0.00 | 80 | 1009.3 |
| 20260508090543 | 8 | 302 | 3.2 | 8.0 | 0.00 | 0.00 | 0.00 | 80 | 1009.5 |
| 20260508090039 | 8 | 273 | 0.0 | 1.6 | 0.00 | 0.00 | 0.00 | 81 | 1009.6 |
| 20260508085536 | 8 | 240 | 1.6 | 4.8 | 0.00 | 0.00 | 0.00 | 80 | 1009.5 |
| 20260508085033 | 8 | 297 | 0.0 | 3.2 | 0.00 | 0.00 | 0.00 | 81 | 1009.1 |
| 20260508084530 | 7 | 63 | 0.0 | 4.8 | 0.00 | 0.00 | 0.00 | 81 | 1009.0 |
| 20260508084027 | 7 | 273 | 1.6 | 4.8 | 0.00 | 0.00 | 0.00 | 82 | 1009.4 |
| 20260508083525 | 7 | 268 | 0.0 | 0.0 | 0.00 | 0.00 | 0.00 | 81 | 1009.3 |
| 20260508083021 | 7 | 257 | 0.0 | 0.0 | 0.00 | 0.00 | 0.00 | 81 | 1009.3 |
| 20260508082517 | 7 | 270 | 0.0 | 1.6 | 0.00 | 0.00 | 0.00 | 81 | 1009.4 |
| 20260508082014 | 7 | 301 | 0.0 | 4.8 | 0.00 | 0.00 | 0.00 | 81 | 1009.2 |
| 20260508081507 | 7 | 222 | 0.0 | 3.2 | 0.00 | 0.00 | 0.00 | 82 | 1009.3 |
| 20260508081002 | 7 | 265 | 0.0 | 1.6 | 0.00 | 0.00 | 0.00 | 82 | 1009.3 |
| 20260508080501 | 7 | 287 | 0.0 | 3.2 | 0.00 | 0.00 | 0.00 | 81 | 1009.1 |
| 20260508075957 | 7 | 225 | 1.6 | 1.6 | 0.00 | 0.00 | 0.00 | 81 | 1009.2 |
| 20260508075453 | 7 | 274 | 0.0 | 1.6 | 0.00 | 0.00 | 0.00 | 81 | 1009.2 |
| 20260508074951 | 7 | 284 | 0.0 | 1.6 | 0.00 | 0.00 | 0.00 | 82 | 1009.4 |
| 20260508074449 | 7 | 318 | 1.6 | 1.6 | 0.00 | 0.00 | 0.00 | 82 | 1009.3 |
| 20260508073940 | 7 | 273 | 0.0 | 1.6 | 0.00 | 0.00 | 0.00 | 83 | 1009.6 |
| 20260508073437 | 7 | 279 | 0.0 | 0.0 | 0.00 | 0.00 | 0.00 | 82 | 1009.5 |
| 20260508072934 | 7 | 270 | 0.0 | 0.0 | 0.00 | 0.00 | 0.00 | 82 | 1009.3 |
| 20260508072430 | 7 | 265 | 0.0 | 1.6 | 0.00 | 0.00 | 0.00 | 81 | 1009.4 |
| 20260508071928 | 7 | 285 | 0.0 | 1.6 | 0.00 | 0.00 | 0.00 | 82 | 1009.5 |
| 20260508071426 | 7 | 251 | 0.0 | 1.6 | 0.00 | 0.00 | 0.00 | 82 | 1009.4 |
| 20260508070923 | 7 | 284 | 0.0 | 1.6 | 0.00 | 0.00 | 0.00 | 82 | 1009.3 |
| 20260508070420 | 7 | 235 | 1.6 | 1.6 | 0.00 | 0.00 | 0.00 | 82 | 1009.5 |
| 20260508065918 | 7 | 259 | 0.0 | 1.6 | 0.00 | 0.00 | 0.00 | 81 | 1009.6 |
| 20260508065411 | 7 | 238 | 1.6 | 1.6 | 0.00 | 0.00 | 0.00 | 80 | 1009.6 |
| 20260508064909 | 7 | 197 | 0.0 | 1.6 | 0.00 | 0.00 | 0.00 | 80 | 1009.6 |
| 20260508064406 | 8 | 322 | 0.0 | 4.8 | 0.00 | 0.00 | 0.00 | 80 | 1009.8 |
| 20260508063903 | 8 | 234 | 0.0 | 1.6 | 0.00 | 0.00 | 0.00 | 79 | 1010.0 |
| 20260508063401 | 8 | 268 | 0.0 | 1.6 | 0.00 | 0.00 | 0.00 | 79 | 1010.0 |
| 20260508062857 | 7 | 279 | 0.0 | 3.2 | 0.00 | 0.00 | 0.00 | 81 | 1009.9 |
| 20260508062355 | 7 | 199 | 3.2 | 3.2 | 0.00 | 0.00 | 0.00 | 82 | 1009.6 |
| 20260508061851 | 7 | 136 | 1.6 | 4.8 | 0.00 | 0.00 | 0.00 | 84 | 1009.7 |
| 20260508061344 | 7 | 266 | 0.0 | 0.0 | 0.00 | 0.00 | 0.00 | 83 | 1009.8 |
| 20260508060839 | 7 | 285 | 0.0 | 1.6 | 0.00 | 0.00 | 0.00 | 82 | 1009.7 |
| 20260508060337 | 7 | 275 | 0.0 | 0.0 | 0.00 | 0.00 | 0.00 | 82 | 1009.8 |
| 20260508055832 | 7 | 276 | 0.0 | 0.0 | 0.00 | 0.00 | 0.00 | 81 | 1009.8 |
| 20260508055330 | 7 | 275 | 0.0 | 0.0 | 0.00 | 0.00 | 0.00 | 80 | 1009.6 |
| 20260508054826 | 7 | 275 | 0.0 | 0.0 | 0.00 | 0.00 | 0.00 | 77 | 1009.8 |
| 20260508054324 | 8 | 275 | 0.0 | 0.0 | 0.00 | 0.00 | 0.00 | 76 | 1009.9 |
| 20260508053821 | 7 | 254 | 0.0 | 0.0 | 0.00 | 0.00 | 0.00 | 76 | 1009.8 |
| 20260508053319 | 7 | 254 | 0.0 | 0.0 | 0.00 | 0.00 | 0.00 | 77 | 1009.7 |
| 20260508052816 | 7 | 254 | 0.0 | 0.0 | 0.00 | 0.00 | 0.00 | 76 | 1009.7 |
| 20260508052313 | 7 | 254 | 0.0 | 0.0 | 0.00 | 0.00 | 0.00 | 76 | 1009.9 |
| 20260508051809 | 7 | 254 | 0.0 | 0.0 | 0.00 | 0.00 | 0.00 | 77 | 1009.9 |
| 20260508051304 | 7 | 254 | 0.0 | 0.0 | 0.00 | 0.00 | 0.00 | 77 | 1010.0 |
| 20260508050801 | 7 | 254 | 0.0 | 0.0 | 0.00 | 0.00 | 0.00 | 76 | 1009.9 |
| 20260508050258 | 7 | 254 | 0.0 | 0.0 | 0.00 | 0.00 | 0.00 | 76 | 1009.7 |
| 20260508045754 | 7 | 254 | 0.0 | 0.0 | 0.00 | 0.00 | 0.00 | 76 | 1009.8 |
| 20260508045252 | 7 | 254 | 0.0 | 0.0 | 0.00 | 0.00 | 0.00 | 76 | 1009.7 |
| 20260508044749 | 7 | 254 | 0.0 | 0.0 | 0.00 | 0.00 | 0.00 | 76 | 1009.8 |
| 20260508044246 | 7 | 253 | 0.0 | 0.0 | 0.00 | 0.00 | 0.00 | 76 | 1009.7 |
| 20260508043742 | 8 | 253 | 0.0 | 1.6 | 0.00 | 0.00 | 0.00 | 74 | 1009.9 |
| 20260508043239 | 8 | 281 | 0.0 | 0.0 | 0.00 | 0.00 | 0.00 | 72 | 1010.0 |
| 20260508042736 | 8 | 281 | 0.0 | 0.0 | 0.00 | 0.00 | 0.00 | 71 | 1009.9 |
| 20260508042233 | 8 | 281 | 0.0 | 0.0 | 0.00 | 0.00 | 0.00 | 71 | 1010.0 |
| 20260508041730 | 8 | 281 | 0.0 | 0.0 | 0.00 | 0.00 | 0.00 | 69 | 1010.0 |
| 20260508041227 | 8 | 282 | 0.0 | 0.0 | 0.00 | 0.00 | 0.00 | 69 | 1010.3 |
| 20260508040723 | 8 | 282 | 0.0 | 0.0 | 0.00 | 0.00 | 0.00 | 68 | 1010.1 |
| 20260508040220 | 9 | 279 | 0.0 | 0.0 | 0.00 | 0.00 | 0.00 | 67 | 1010.3 |
| 20260508035717 | 9 | 275 | 0.0 | 1.6 | 0.00 | 0.00 | 0.00 | 67 | 1010.0 |
| 20260508035215 | 9 | 284 | 0.0 | 1.6 | 0.00 | 0.00 | 0.00 | 67 | 1010.2 |
| 20260508034711 | 9 | 286 | 0.0 | 1.6 | 0.00 | 0.00 | 0.00 | 66 | 1010.2 |
| 20260508034209 | 9 | 282 | 0.0 | 1.6 | 0.00 | 0.00 | 0.00 | 65 | 1010.0 |
| 20260508033706 | 9 | 284 | 0.0 | 3.2 | 0.00 | 0.00 | 0.00 | 65 | 1010.1 |
| 20260508033204 | 9 | 332 | 3.2 | 3.2 | 0.00 | 0.00 | 0.00 | 64 | 1009.9 |
| 20260508032701 | 9 | 277 | 0.0 | 0.0 | 0.00 | 0.00 | 0.00 | 64 | 1010.3 |
| 20260508032158 | 10 | 291 | 1.6 | 3.2 | 0.00 | 0.00 | 0.00 | 63 | 1010.1 |
| 20260508031655 | 9 | 305 | 1.6 | 4.8 | 0.00 | 0.00 | 0.00 | 63 | 1010.2 |
| 20260508031151 | 10 | 331 | 3.2 | 3.2 | 0.00 | 0.00 | 0.00 | 63 | 1010.3 |
| 20260508030647 | 9 | 287 | 1.6 | 3.2 | 0.00 | 0.00 | 0.00 | 62 | 1010.2 |
| 20260508030145 | 10 | 284 | 0.0 | 1.6 | 0.00 | 0.00 | 0.00 | 63 | 1010.0 |
| 20260508025641 | 10 | 284 | 1.6 | 3.2 | 0.00 | 0.00 | 0.00 | 62 | 1010.2 |
| 20260508025139 | 10 | 291 | 0.0 | 3.2 | 0.00 | 0.00 | 0.00 | 62 | 1010.0 |
| 20260508024634 | 10 | 294 | 1.6 | 8.0 | 0.00 | 0.00 | 0.00 | 62 | 1010.0 |
| 20260508024132 | 9 | 307 | 3.2 | 4.8 | 0.00 | 0.00 | 0.00 | 62 | 1010.0 |
| 20260508023628 | 8 | 254 | 1.6 | 4.8 | 0.00 | 0.00 | 0.00 | 66 | 1010.1 |
| 20260508023126 | 8 | 303 | 0.0 | 3.2 | 0.00 | 0.00 | 0.00 | 71 | 1010.0 |
| 20260508022621 | 7 | 276 | 0.0 | 0.0 | 0.00 | 0.00 | 0.00 | 75 | 1010.1 |
| 20260508022119 | 7 | 268 | 0.0 | 0.0 | 0.00 | 0.00 | 0.00 | 75 | 1009.8 |
| 20260508021614 | 7 | 289 | 0.0 | 0.0 | 0.00 | 0.00 | 0.00 | 75 | 1010.1 |
| 20260508021110 | 7 | 291 | 0.0 | 1.6 | 0.00 | 0.00 | 0.00 | 75 | 1009.9 |
| 20260508020608 | 6 | 281 | 0.0 | 0.0 | 0.00 | 0.00 | 0.00 | 76 | 1009.7 |
| 20260508020106 | 6 | 281 | 0.0 | 0.0 | 0.00 | 0.00 | 0.00 | 75 | 1009.7 |
| 20260508015603 | 6 | 281 | 0.0 | 0.0 | 0.00 | 0.00 | 0.00 | 75 | 1009.5 |
| 20260508015059 | 6 | 281 | 0.0 | 0.0 | 0.00 | 0.00 | 0.00 | 75 | 1009.3 |
| 20260508014556 | 6 | 281 | 0.0 | 0.0 | 0.00 | 0.00 | 0.00 | 77 | 1009.6 |
| 20260508014052 | 5 | 281 | 0.0 | 0.0 | 0.00 | 0.00 | 0.00 | 77 | 1009.6 |
| 20260508013548 | 6 | 281 | 0.0 | 0.0 | 0.00 | 0.00 | 0.00 | 76 | 1009.6 |
| 20260508013046 | 6 | 282 | 0.0 | 0.0 | 0.00 | 0.00 | 0.00 | 75 | 1009.6 |
| 20260508012543 | 6 | 281 | 0.0 | 0.0 | 0.00 | 0.00 | 0.00 | 73 | 1009.6 |
| 20260508012040 | 6 | 281 | 0.0 | 0.0 | 0.00 | 0.00 | 0.00 | 72 | 1009.5 |
| 20260508011539 | 6 | 282 | 0.0 | 0.0 | 0.00 | 0.00 | 0.00 | 71 | 1009.5 |
| 20260508011036 | 6 | 282 | 0.0 | 0.0 | 0.00 | 0.00 | 0.00 | 69 | 1009.3 |
| 20260508010532 | 7 | 282 | 0.0 | 0.0 | 0.00 | 0.00 | 0.00 | 70 | 1009.3 |
| 20260508010030 | 7 | 282 | 0.0 | 0.0 | 0.00 | 0.00 | 0.00 | 67 | 1009.2 |
| 20260508005526 | 7 | 282 | 0.0 | 0.0 | 0.00 | 0.00 | 0.00 | 65 | 1009.6 |
| 20260508005023 | 8 | 282 | 0.0 | 0.0 | 0.00 | 0.00 | 0.00 | 64 | 1009.2 |
| 20260508004519 | 8 | 282 | 0.0 | 0.0 | 0.00 | 0.00 | 0.00 | 62 | 1009.1 |
| 20260508004016 | 8 | 282 | 0.0 | 0.0 | 0.00 | 0.00 | 0.00 | 62 | 1009.5 |
| 20260508003512 | 9 | 281 | 0.0 | 0.0 | 0.00 | 0.00 | 0.00 | 58 | 1009.1 |
| 20260508003009 | 10 | 282 | 0.0 | 0.0 | 0.00 | 0.00 | 0.00 | 57 | 1009.1 |
| 20260508002505 | 10 | 283 | 0.0 | 0.0 | 0.00 | 0.00 | 0.00 | 56 | 1009.1 |
| 20260508002003 | 10 | 283 | 1.6 | 1.6 | 0.00 | 0.00 | 0.00 | 54 | 1009.0 |
| 20260508001458 | 10 | 276 | 0.0 | 1.6 | 0.00 | 0.00 | 0.00 | 53 | 1009.2 |
| 20260508000954 | 11 | 278 | 1.6 | 4.8 | 0.00 | 0.00 | 0.00 | 51 | 1008.9 |
| 20260508000445 | 11 | 283 | 1.6 | 9.7 | 0.00 | 0.00 | 0.00 | 50 | 1009.0 |
| 20260507235942 | 11 | 274 | 0.0 | 4.8 | 0.00 | 0.00 | 0.00 | 51 | 1009.0 |
| 20260507235439 | 12 | 294 | 3.2 | 3.2 | 0.00 | 0.00 | 0.00 | 49 | 1008.9 |
| 20260507234937 | 12 | 276 | 1.6 | 4.8 | 0.00 | 0.00 | 0.00 | 48 | 1008.8 |
| 20260507234433 | 12 | 276 | 3.2 | 8.0 | 0.00 | 0.00 | 0.00 | 49 | 1008.7 |
| 20260507233930 | 12 | 288 | 3.2 | 4.8 | 0.00 | 0.00 | 0.00 | 48 | 1008.7 |
| 20260507233426 | 13 | 297 | 4.8 | 4.8 | 0.00 | 0.00 | 0.00 | 46 | 1008.7 |
| 20260507232925 | 12 | 267 | 1.6 | 4.8 | 0.00 | 0.00 | 0.00 | 47 | 1008.7 |
| 20260507232421 | 12 | 276 | 3.2 | 4.8 | 0.00 | 0.00 | 0.00 | 48 | 1008.8 |
| 20260507231919 | 13 | 286 | 4.8 | 8.0 | 0.00 | 0.00 | 0.00 | 47 | 1008.8 |
| 20260507231415 | 13 | 285 | 1.6 | 3.2 | 0.00 | 0.00 | 0.00 | 48 | 1008.7 |
| 20260507230911 | 13 | 324 | 4.8 | 4.8 | 0.00 | 0.00 | 0.00 | 47 | 1008.8 |
| 20260507230409 | 12 | 284 | 3.2 | 8.0 | 0.00 | 0.00 | 0.00 | 46 | 1008.9 |
| 20260507225908 | 13 | 311 | 3.2 | 8.0 | 0.00 | 0.00 | 0.00 | 47 | 1008.8 |
| 20260507225404 | 13 | 301 | 1.6 | 4.8 | 0.00 | 0.00 | 0.00 | 48 | 1008.9 |
| 20260507224901 | 13 | 220 | 3.2 | 11.3 | 0.00 | 0.00 | 0.00 | 47 | 1009.2 |
| 20260507224352 | 13 | 290 | 4.8 | 9.7 | 0.00 | 0.00 | 0.00 | 46 | 1009.0 |
| 20260507223848 | 12 | 306 | 3.2 | 9.7 | 0.00 | 0.00 | 0.00 | 47 | 1008.9 |
| 20260507223345 | 12 | 261 | 4.8 | 4.8 | 0.00 | 0.00 | 0.00 | 50 | 1009.1 |
| 20260507222842 | 12 | 291 | 1.6 | 3.2 | 0.00 | 0.00 | 0.00 | 49 | 1008.9 |
| 20260507222338 | 12 | 272 | 0.0 | 8.0 | 0.00 | 0.00 | 0.00 | 48 | 1009.0 |
| 20260507221835 | 13 | 202 | 4.8 | 20.9 | 0.00 | 0.00 | 0.00 | 46 | 1009.1 |
| 20260507221332 | 13 | 277 | 3.2 | 14.5 | 0.00 | 0.00 | 0.00 | 45 | 1009.0 |
| 20260507220827 | 13 | 203 | 1.6 | 4.8 | 0.00 | 0.00 | 0.00 | 46 | 1009.0 |
| 20260507220326 | 12 | 179 | 1.6 | 12.9 | 0.00 | 0.00 | 0.00 | 47 | 1008.9 |
| 20260507215822 | 12 | 270 | 4.8 | 8.0 | 0.00 | 0.00 | 0.00 | 47 | 1008.7 |
| 20260507215319 | 12 | 301 | 1.6 | 4.8 | 0.00 | 0.00 | 0.00 | 50 | 1008.7 |
| 20260507214816 | 12 | 339 | 1.6 | 4.8 | 0.00 | 0.00 | 0.00 | 47 | 1008.9 |
| 20260507214313 | 13 | 270 | 6.4 | 12.9 | 0.00 | 0.00 | 0.00 | 45 | 1008.9 |
| 20260507213808 | 13 | 326 | 4.8 | 14.5 | 0.00 | 0.00 | 0.00 | 46 | 1008.9 |
| 20260507213306 | 13 | 286 | 4.8 | 8.0 | 0.00 | 0.00 | 0.00 | 46 | 1008.8 |
| 20260507212803 | 14 | 301 | 8.0 | 11.3 | 0.00 | 0.00 | 0.00 | 45 | 1008.7 |
| 20260507212258 | 14 | 284 | 8.0 | 16.1 | 0.00 | 0.00 | 0.00 | 44 | 1008.6 |
| 20260507211755 | 13 | 249 | 1.6 | 9.7 | 0.00 | 0.00 | 0.00 | 46 | 1008.5 |
| 20260507211252 | 13 | 345 | 6.4 | 16.1 | 0.00 | 0.00 | 0.00 | 46 | 1008.6 |
| 20260507210749 | 12 | 252 | 3.2 | 8.0 | 0.00 | 0.00 | 0.00 | 51 | 1008.5 |
| 20260507210246 | 13 | 231 | 4.8 | 12.9 | 0.00 | 0.00 | 0.00 | 50 | 1008.4 |
| 20260507205742 | 13 | 279 | 4.8 | 8.0 | 0.00 | 0.00 | 0.00 | 48 | 1008.3 |
| 20260507205239 | 13 | 6 | 1.6 | 8.0 | 0.00 | 0.00 | 0.00 | 50 | 1008.5 |
| 20260507204735 | 13 | 240 | 6.4 | 11.3 | 0.00 | 0.00 | 0.00 | 48 | 1008.4 |
| 20260507204233 | 14 | 16 | 6.4 | 9.7 | 0.00 | 0.00 | 0.00 | 50 | 1008.3 |
| 20260507203731 | 13 | 2 | 4.8 | 11.3 | 0.00 | 0.00 | 0.00 | 53 | 1008.6 |
| 20260507203227 | 14 | 327 | 8.0 | 14.5 | 0.00 | 0.00 | 0.00 | 51 | 1008.5 |
| 20260507202723 | 13 | 329 | 3.2 | 9.7 | 0.00 | 0.00 | 0.00 | 52 | 1008.5 |
| 20260507202220 | 13 | 252 | 3.2 | 9.7 | 0.00 | 0.00 | 0.00 | 52 | 1008.3 |
| 20260507201714 | 12 | 347 | 3.2 | 14.5 | 0.00 | 0.00 | 0.00 | 53 | 1008.3 |
| 20260507201212 | 14 | 267 | 4.8 | 9.7 | 0.00 | 0.00 | 0.00 | 50 | 1008.4 |
| 20260507200708 | 13 | 302 | 3.2 | 8.0 | 0.00 | 0.00 | 0.00 | 51 | 1008.7 |
| 20260507200204 | 14 | 291 | 4.8 | 9.7 | 0.00 | 0.00 | 0.00 | 51 | 1008.5 |
| 20260507195700 | 13 | 316 | 1.6 | 8.0 | 0.00 | 0.00 | 0.00 | 52 | 1008.3 |
| 20260507195158 | 15 | 327 | 3.2 | 8.0 | 0.00 | 0.00 | 0.00 | 50 | 1007.9 |
| 20260507194654 | 14 | 252 | 3.2 | 16.1 | 0.00 | 0.00 | 0.00 | 51 | 1008.5 |
| 20260507194151 | 13 | 250 | 3.2 | 4.8 | 0.00 | 0.00 | 0.00 | 51 | 1008.6 |
| 20260507193647 | 13 | 282 | 4.8 | 11.3 | 0.00 | 0.00 | 0.00 | 50 | 1008.6 |
| 20260507193144 | 14 | 339 | 9.7 | 16.1 | 0.00 | 0.00 | 0.00 | 49 | 1008.4 |
| 20260507192640 | 13 | 253 | 4.8 | 16.1 | 0.00 | 0.00 | 0.00 | 48 | 1008.7 |
| 20260507192138 | 14 | 341 | 3.2 | 12.9 | 0.00 | 0.00 | 0.00 | 47 | 1008.6 |
| 20260507191633 | 13 | 51 | 1.6 | 14.5 | 0.00 | 0.00 | 0.00 | 50 | 1008.6 |
| 20260507191130 | 13 | 317 | 4.8 | 9.7 | 0.00 | 0.00 | 0.00 | 51 | 1008.7 |
| 20260507190627 | 14 | 293 | 4.8 | 11.3 | 0.00 | 0.00 | 0.00 | 49 | 1008.4 |
| 20260507190126 | 15 | 288 | 4.8 | 8.0 | 0.00 | 0.00 | 0.00 | 49 | 1008.5 |
| 20260507185624 | 13 | 250 | 1.6 | 9.7 | 0.00 | 0.00 | 0.00 | 52 | 1008.5 |
| 20260507185120 | 14 | 348 | 6.4 | 11.3 | 0.00 | 0.00 | 0.00 | 51 | 1008.7 |
| 20260507184618 | 13 | 229 | 1.6 | 12.9 | 0.00 | 0.00 | 0.00 | 53 | 1008.7 |
| 20260507184116 | 14 | 276 | 1.6 | 4.8 | 0.00 | 0.00 | 0.00 | 49 | 1008.7 |
| 20260507183612 | 14 | 303 | 3.2 | 14.5 | 0.00 | 0.00 | 0.00 | 51 | 1008.7 |
| 20260507183109 | 15 | 239 | 1.6 | 17.7 | 0.00 | 0.00 | 0.00 | 51 | 1008.6 |
| 20260507182605 | 13 | 0 | 4.8 | 12.9 | 0.00 | 0.00 | 0.00 | 51 | 1008.7 |
| 20260507182101 | 15 | 311 | 4.8 | 9.7 | 0.00 | 0.00 | 0.00 | 50 | 1008.8 |
| 20260507181558 | 14 | 344 | 4.8 | 11.3 | 0.00 | 0.00 | 0.00 | 50 | 1008.6 |
| 20260507181055 | 13 | 260 | 3.2 | 11.3 | 0.00 | 0.00 | 0.00 | 52 | 1008.7 |
| 20260507180552 | 13 | 255 | 0.0 | 11.3 | 0.00 | 0.00 | 0.00 | 53 | 1009.0 |
| 20260507180048 | 12 | 269 | 11.3 | 14.5 | 0.00 | 0.00 | 0.00 | 51 | 1009.0 |
| 20260507175544 | 13 | 323 | 3.2 | 4.8 | 0.00 | 0.00 | 0.00 | 52 | 1009.0 |
| 20260507175042 | 12 | 275 | 1.6 | 8.0 | 0.00 | 0.00 | 0.00 | 53 | 1008.8 |
| 20260507174539 | 13 | 315 | 6.4 | 11.3 | 0.00 | 0.00 | 0.00 | 50 | 1009.0 |
| 20260507174037 | 14 | 356 | 3.2 | 11.3 | 0.00 | 0.00 | 0.00 | 51 | 1008.8 |
| 20260507173533 | 14 | 262 | 3.2 | 11.3 | 0.00 | 0.00 | 0.00 | 52 | 1008.9 |
| 20260507173031 | 14 | 298 | 1.6 | 9.7 | 0.00 | 0.00 | 0.00 | 50 | 1009.1 |
| 20260507172526 | 15 | 293 | 1.6 | 9.7 | 0.00 | 0.00 | 0.00 | 49 | 1009.0 |
| 20260507172023 | 13 | 339 | 1.6 | 4.8 | 0.00 | 0.00 | 0.00 | 52 | 1008.9 |
| 20260507171519 | 13 | 294 | 1.6 | 4.8 | 0.00 | 0.00 | 0.00 | 50 | 1009.3 |
| 20260507171016 | 13 | 268 | 4.8 | 12.9 | 0.00 | 0.00 | 0.00 | 50 | 1009.2 |
| 20260507170513 | 13 | 340 | 6.4 | 9.7 | 0.00 | 0.00 | 0.00 | 47 | 1009.1 |
| 20260507170010 | 14 | 268 | 4.8 | 9.7 | 0.00 | 0.00 | 0.00 | 50 | 1009.2 |
| 20260507165506 | 14 | 316 | 1.6 | 4.8 | 0.00 | 0.00 | 0.00 | 54 | 1009.0 |
| 20260507165002 | 13 | 305 | 3.2 | 11.3 | 0.00 | 0.00 | 0.00 | 50 | 1009.2 |
| 20260507164458 | 13 | 303 | 1.6 | 3.2 | 0.00 | 0.00 | 0.00 | 55 | 1009.0 |
| 20260507163955 | 13 | 335 | 3.2 | 11.3 | 0.00 | 0.00 | 0.00 | 49 | 1009.0 |
| 20260507163453 | 13 | 309 | 4.8 | 9.7 | 0.00 | 0.00 | 0.00 | 52 | 1009.4 |
| 20260507162950 | 13 | 297 | 4.8 | 11.3 | 0.00 | 0.00 | 0.00 | 50 | 1009.3 |
| 20260507162445 | 14 | 343 | 6.4 | 9.7 | 0.00 | 0.00 | 0.00 | 47 | 1009.2 |
| 20260507161942 | 13 | 302 | 3.2 | 9.7 | 0.00 | 0.00 | 0.00 | 50 | 1009.2 |
| 20260507161438 | 13 | 323 | 1.6 | 4.8 | 0.00 | 0.00 | 0.00 | 52 | 1009.2 |
| 20260507160935 | 13 | 291 | 6.4 | 8.0 | 0.00 | 0.00 | 0.00 | 51 | 1009.1 |
| 20260507160431 | 13 | 60 | 3.2 | 9.7 | 0.00 | 0.00 | 0.00 | 50 | 1009.3 |
| 20260507155927 | 13 | 191 | 3.2 | 11.3 | 0.00 | 0.00 | 0.00 | 52 | 1009.4 |
| 20260507155423 | 13 | 253 | 1.6 | 9.7 | 0.00 | 0.00 | 0.00 | 50 | 1009.2 |
| 20260507154921 | 13 | 279 | 1.6 | 3.2 | 0.00 | 0.00 | 0.00 | 52 | 1009.1 |
| 20260507154417 | 13 | 237 | 0.0 | 4.8 | 0.00 | 0.00 | 0.00 | 57 | 1009.2 |
| 20260507153915 | 13 | 285 | 6.4 | 9.7 | 0.00 | 0.00 | 0.00 | 50 | 1009.4 |
| 20260507153411 | 13 | 309 | 4.8 | 12.9 | 0.00 | 0.00 | 0.00 | 49 | 1009.0 |
| 20260507152908 | 13 | 243 | 4.8 | 9.7 | 0.00 | 0.00 | 0.00 | 49 | 1009.2 |
| 20260507152404 | 13 | 339 | 3.2 | 8.0 | 0.00 | 0.00 | 0.00 | 49 | 1009.2 |
| 20260507151900 | 13 | 301 | 1.6 | 11.3 | 0.00 | 0.00 | 0.00 | 50 | 1009.2 |
| 20260507151356 | 13 | 268 | 1.6 | 3.2 | 0.00 | 0.00 | 0.00 | 52 | 1009.3 |
| 20260507150854 | 12 | 271 | 1.6 | 8.0 | 0.00 | 0.00 | 0.00 | 51 | 1009.2 |
| 20260507150350 | 13 | 287 | 3.2 | 4.8 | 0.00 | 0.00 | 0.00 | 53 | 1009.3 |
| 20260507145846 | 12 | 340 | 4.8 | 9.7 | 0.00 | 0.00 | 0.00 | 51 | 1009.3 |
| 20260507145342 | 12 | 251 | 3.2 | 11.3 | 0.00 | 0.00 | 0.00 | 52 | 1009.4 |
| 20260507144840 | 12 | 117 | 3.2 | 9.7 | 0.00 | 0.00 | 0.00 | 51 | 1009.6 |
| 20260507144337 | 13 | 234 | 4.8 | 16.1 | 0.00 | 0.00 | 0.00 | 52 | 1009.4 |
| 20260507143834 | 12 | 211 | 1.6 | 8.0 | 0.00 | 0.00 | 0.00 | 52 | 1009.2 |
| 20260507143331 | 12 | 281 | 0.0 | 4.8 | 0.00 | 0.00 | 0.00 | 55 | 1009.3 |
| 20260507142827 | 12 | 221 | 3.2 | 8.0 | 0.00 | 0.00 | 0.00 | 55 | 1009.3 |
| 20260507142323 | 12 | 262 | 3.2 | 11.3 | 0.00 | 0.00 | 0.00 | 56 | 1009.6 |
| 20260507141820 | 12 | 329 | 1.6 | 4.8 | 0.00 | 0.00 | 0.00 | 59 | 1009.3 |
| 20260507141317 | 12 | 146 | 4.8 | 16.1 | 0.00 | 0.00 | 0.00 | 57 | 1009.4 |
| 20260507140813 | 12 | 268 | 0.0 | 9.7 | 0.00 | 0.00 | 0.00 | 61 | 1009.5 |
| 20260507140310 | 11 | 320 | 3.2 | 9.7 | 0.00 | 0.00 | 0.00 | 61 | 1009.5 |
| 20260507135808 | 12 | 268 | 3.2 | 3.2 | 0.00 | 0.00 | 0.00 | 63 | 1009.5 |
| 20260507135306 | 11 | 242 | 1.6 | 3.2 | 0.00 | 0.00 | 0.00 | 63 | 1009.8 |
| 20260507134801 | 11 | 229 | 1.6 | 4.8 | 0.00 | 0.00 | 0.00 | 63 | 1009.7 |
| 20260507134258 | 11 | 35 | 3.2 | 11.3 | 0.00 | 0.00 | 0.00 | 64 | 1009.7 |
| 20260507133753 | 10 | 299 | 1.6 | 3.2 | 0.00 | 0.00 | 0.00 | 67 | 1009.8 |
| 20260507133250 | 10 | 20 | 0.0 | 4.8 | 0.00 | 0.00 | 0.00 | 70 | 1009.9 |
| 20260507132748 | 10 | 314 | 3.2 | 9.7 | 0.00 | 0.00 | 0.00 | 72 | 1009.9 |
| 20260507132244 | 10 | 259 | 1.6 | 4.8 | 0.00 | 0.00 | 0.00 | 73 | 1009.8 |
| 20260507131741 | 10 | 280 | 4.8 | 4.8 | 0.00 | 0.00 | 0.00 | 74 | 1009.9 |
| 20260507131239 | 10 | 300 | 1.6 | 4.8 | 0.00 | 0.00 | 0.00 | 73 | 1009.6 |
| 20260507130735 | 10 | 272 | 0.0 | 3.2 | 0.00 | 0.00 | 0.00 | 76 | 1009.8 |
| 20260507130233 | 9 | 266 | 0.0 | 1.6 | 0.00 | 0.00 | 0.00 | 75 | 1009.6 |
| 20260507125731 | 9 | 291 | 0.0 | 3.2 | 0.00 | 0.00 | 0.00 | 77 | 1009.8 |
| 20260507125229 | 9 | 345 | 1.6 | 8.0 | 0.00 | 0.00 | 0.00 | 77 | 1009.7 |
| 20260507124725 | 8 | 286 | 1.6 | 3.2 | 0.00 | 0.00 | 0.00 | 78 | 1009.7 |
| 20260507124222 | 8 | 340 | 0.0 | 3.2 | 0.00 | 0.00 | 0.00 | 80 | 1009.8 |
| 20260507123720 | 8 | 313 | 1.6 | 3.2 | 0.00 | 0.00 | 0.00 | 81 | 1009.7 |
| 20260507123217 | 7 | 204 | 1.6 | 3.2 | 0.00 | 0.00 | 0.00 | 82 | 1009.7 |
| 20260507122712 | 7 | 257 | 0.0 | 3.2 | 0.00 | 0.00 | 0.00 | 84 | 1009.6 |
| 20260507122209 | 6 | 194 | 0.0 | 3.2 | 0.00 | 0.00 | 0.00 | 89 | 1009.6 |
| 20260507121704 | 6 | 285 | 0.0 | 4.8 | 0.00 | 0.00 | 0.00 | 94 | 1009.8 |
| 20260507121200 | 5 | 299 | 0.0 | 0.0 | 0.00 | 0.00 | 0.00 | 98 | 1009.7 |
| 20260507120657 | 5 | 346 | 3.2 | 3.2 | 0.00 | 0.00 | 0.00 | 99 | 1009.8 |
| 20260507120154 | 5 | 277 | 0.0 | 1.6 | 0.00 | 0.00 | 0.00 | 99 | 1009.7 |
| 20260507115650 | 5 | 263 | 0.0 | 1.6 | 0.00 | 0.00 | 0.00 | 99 | 1009.8 |
| 20260507115146 | 5 | 282 | 0.0 | 0.0 | 0.00 | 0.00 | 0.00 | 99 | 1009.7 |
| 20260507114642 | 5 | 259 | 0.0 | 0.0 | 0.00 | 0.00 | 0.00 | 99 | 1009.7 |
| 20260507114139 | 5 | 260 | 0.0 | 0.0 | 0.00 | 0.00 | 0.00 | 99 | 1009.7 |
| 20260507113637 | 4 | 261 | 0.0 | 0.0 | 0.00 | 0.00 | 0.00 | 99 | 1009.8 |
| 20260507113133 | 3 | 265 | 0.0 | 0.0 | 0.00 | 0.00 | 0.00 | 99 | 1009.5 |
| 20260507112631 | 3 | 264 | 0.0 | 0.0 | 0.00 | 0.00 | 0.00 | 99 | 1009.5 |
| 20260507112128 | 3 | 262 | 0.0 | 0.0 | 0.00 | 0.00 | 0.00 | 99 | 1009.6 |
| 20260507111625 | 2 | 265 | 0.0 | 0.0 | 0.00 | 0.00 | 0.00 | 99 | 1009.3 |
| 20260507111122 | 2 | 266 | 0.0 | 0.0 | 0.00 | 0.00 | 0.00 | 99 | 1009.6 |
| 20260507110618 | 2 | 266 | 0.0 | 0.0 | 0.00 | 0.00 | 0.00 | 99 | 1009.5 |
| 20260507110115 | 2 | 266 | 0.0 | 0.0 | 0.00 | 0.00 | 0.00 | 99 | 1009.4 |